Weather History for KC09 - February, 2012

Change the Weather History Date:

Wednesday, February 29, 2012

  Actual Average Record
Temperature  
Mean Temperature 47 °F -  
Max Temperature 57 °F - - ()
Min Temperature 35 °F - - ()
Degree Days  
Heating Degree Days 18    
Moisture  
Dew Point 39 °F    
Average Humidity 70    
Maximum Humidity 97    
Minimum Humidity 38    
Precipitation  
Precipitation 0.09 in - - ()
Sea Level Pressure  
Sea Level Pressure 29.52 in    
Wind  
Wind Speed 19 mph (SW)    
Max Wind Speed 37 mph    
Max Gust Speed 44 mph    
Visibility 8 miles    
Events Rain , Thunderstorm    
Averages and records for this station are not official NWS values.
T = Trace of Precipitation, MM = Missing Value Source: NWS Daily Summary

Daily Weather History Graph

Daily Weather History Graph

Search for Another Location

Airport or City:

Trip Planner

Search our weather history database for the weather conditions in past years. The results will help you decide how hot, cold, wet, or windy it might be!

Date:

Astronomy

Feb. 29, 2012 Rise Set
Actual Time 6:28 AM CST 5:43 PM CST
Civil Twilight 6:01 AM CST 6:11 PM CST
Nautical Twilight 5:29 AM CST 6:43 PM CST
Astronomical Twilight 4:57 AM CST 7:15 PM CST
Moon 10:14 AM CST (2/29) 12:35 AM CST (2/29)
Length of Visible Light 12h 10m
Length of Day
11h 14m
Waxing Crescent, 47% of the Moon is Illuminated
Feb 29
Waxing Crescent
Feb 29
First Quarter
Mar 8
Full
Mar 14
Last Quarter
Mar 22
New

Hourly Weather History & Observations

Time (CST) Temp. Windchill Dew Point Humidity Pressure Visibility Wind Dir Wind Speed Gust Speed Precip Events Conditions
12:15 AM 41.4 °F 33.0 °F 39.6 °F 93% 29.72 in 5.0 mi SE 17.3 mph - 0.02 in Rain , Thunderstorm Light Thunderstorms and Rain
12:35 AM 41.4 °F 31.9 °F 39.6 °F 93% 29.68 in 5.0 mi SE 21.9 mph 26.5 mph 0.03 in Rain Rain
12:55 AM 41.5 °F 32.9 °F 40.1 °F 95% 29.69 in 4.0 mi SE 18.4 mph 25.3 mph 0.05 in Rain Light Rain
1:15 AM 41.7 °F 33.7 °F 40.3 °F 95% 29.68 in 2.5 mi ESE 16.1 mph - 0.03 in Rain Heavy Rain
1:35 AM 41.9 °F 34.6 °F 41.0 °F 97% 29.66 in 2.5 mi SE 13.8 mph 25.3 mph 0.03 in Rain Light Rain
1:55 AM 42.6 °F 34.9 °F 41.2 °F 95% 29.63 in 5.0 mi SE 16.1 mph 21.9 mph 0.03 in   Overcast
2:15 AM 42.8 °F 37.0 °F 41.0 °F 93% 29.62 in 5.0 mi SE 10.4 mph 15.0 mph 0.01 in   Overcast
2:35 AM 44.2 °F 37.6 °F 42.8 °F 95% 29.60 in 5.0 mi SE 13.8 mph - 0.01 in   Drizzle
2:55 AM 44.1 °F 36.8 °F 42.8 °F 95% 29.57 in 4.0 mi SE 16.1 mph 20.7 mph 0.01 in   Overcast
3:15 AM 44.6 °F 38.1 °F 43.2 °F 95% 29.55 in 5.0 mi SE 13.8 mph - N/A   Overcast
3:35 AM 45.3 °F 38.7 °F 43.9 °F 95% 29.53 in 5.0 mi SE 15.0 mph - N/A   Overcast
3:55 AM 45.9 °F 40.8 °F 44.6 °F 95% 29.53 in 5.0 mi SE 10.4 mph - N/A   Overcast
4:15 AM 46.6 °F - 45.3 °F 95% 29.52 in 4.0 mi SSE 9.2 mph - N/A   Overcast
4:35 AM 48.4 °F - 47.3 °F 96% 29.51 in 4.0 mi SSE 10.4 mph - N/A   Overcast
4:55 AM 49.1 °F - 47.8 °F 95% 29.49 in 4.0 mi SSE 12.7 mph - N/A   Overcast
5:15 AM 49.5 °F - 48.4 °F 96% 29.48 in 4.0 mi SSE 11.5 mph - N/A   Overcast
5:35 AM 49.6 °F - 48.7 °F 97% 29.48 in 3.0 mi SSE 9.2 mph - N/A   Overcast
5:55 AM 50.5 °F - 49.6 °F 97% 29.48 in 4.0 mi South 12.7 mph - N/A   Mostly Cloudy
6:15 AM 50.0 °F - 49.1 °F 97% 29.49 in 3.0 mi South 10.4 mph - N/A   Scattered Clouds
6:35 AM 51.4 °F - 50.7 °F 97% 29.49 in 5.0 mi SW 11.5 mph - N/A   Clear
6:55 AM 53.6 °F - 50.9 °F 91% 29.48 in 10.0 mi SW 15.0 mph 19.6 mph N/A   Clear
7:15 AM 54.5 °F - 49.1 °F 82% 29.49 in 10.0 mi WSW 17.3 mph - N/A   Clear
7:35 AM 54.9 °F - 49.1 °F 81% 29.50 in 10.0 mi WSW 20.7 mph 26.5 mph N/A   Clear
7:55 AM 55.4 °F - 46.8 °F 73% 29.51 in 10.0 mi WSW 18.4 mph 27.6 mph N/A   Clear
8:15 AM 55.0 °F - 45.0 °F 69% 29.51 in 10.0 mi SW 19.6 mph 25.3 mph N/A   Clear
8:35 AM 55.4 °F - 42.6 °F 62% 29.51 in 10.0 mi SW 23.0 mph 31.1 mph N/A   Clear
8:55 AM 55.0 °F - 40.3 °F 58% 29.51 in 10.0 mi SW 28.8 mph 35.7 mph N/A   Clear
9:15 AM 55.0 °F - 39.4 °F 56% 29.52 in 10.0 mi SW 25.3 mph 33.4 mph N/A   Clear
9:35 AM 54.1 °F - 34.5 °F 48% 29.53 in 10.0 mi WSW 29.9 mph 43.7 mph N/A   Clear
9:55 AM 54.1 °F - 36.7 °F 52% 29.53 in 10.0 mi WSW 20.7 mph 27.6 mph N/A   Clear
10:15 AM 55.4 °F - 37.0 °F 50% 29.53 in 10.0 mi WSW 19.6 mph 31.1 mph N/A   Clear
10:35 AM 56.3 °F - 37.6 °F 50% 29.52 in 10.0 mi SW 28.8 mph 35.7 mph N/A   Clear
10:55 AM 56.5 °F - 36.3 °F 47% 29.51 in 10.0 mi SW 26.5 mph 35.7 mph N/A   Clear
11:15 AM 57.4 °F - 38.1 °F 49% 29.51 in 10.0 mi SW 31.1 mph 38.0 mph N/A   Clear
11:35 AM 56.7 °F - 36.3 °F 47% 29.51 in 10.0 mi SW 27.6 mph 35.7 mph N/A   Clear
11:55 AM 57.6 °F - 36.7 °F 46% 29.50 in 10.0 mi SW 27.6 mph 33.4 mph N/A   Clear
12:15 PM 57.7 °F - 37.4 °F 47% 29.48 in 10.0 mi SW 20.7 mph 26.5 mph N/A   Clear
12:35 PM 57.7 °F - 34.9 °F 42% 29.46 in 10.0 mi SW 26.5 mph 39.1 mph N/A   Clear
12:55 PM 57.6 °F - 34.2 °F 41% 29.44 in 10.0 mi SW 31.1 mph 39.1 mph N/A   Clear
1:15 PM 57.2 °F - 31.8 °F 38% 29.44 in 10.0 mi WSW 26.5 mph 39.1 mph N/A   Clear
1:35 PM 57.0 °F - 32.9 °F 40% 29.43 in 10.0 mi WSW 21.9 mph 34.5 mph N/A   Clear
1:55 PM 57.2 °F - 32.0 °F 38% 29.43 in 10.0 mi WSW 29.9 mph 38.0 mph N/A   Clear
2:15 PM 56.5 °F - 30.9 °F 38% 29.43 in 10.0 mi WSW 31.1 mph 41.4 mph N/A   Clear
2:35 PM 54.9 °F - 31.6 °F 41% 29.44 in 10.0 mi West 31.1 mph 42.6 mph N/A   Clear
2:55 PM 53.4 °F - 33.4 °F 47% 29.45 in 10.0 mi West 29.9 mph 35.7 mph N/A   Clear
3:15 PM 51.6 °F - 32.2 °F 47% 29.46 in 10.0 mi West 28.8 mph 41.4 mph N/A   Scattered Clouds
3:35 PM 49.8 °F - 32.0 °F 50% 29.47 in 10.0 mi West 31.1 mph 42.6 mph N/A   Overcast
3:55 PM 48.2 °F - 31.8 °F 53% 29.49 in 10.0 mi West 28.8 mph 39.1 mph N/A   Overcast
4:15 PM 44.8 °F 36.4 °F 32.0 °F 61% 29.51 in 10.0 mi West 21.9 mph 34.5 mph N/A   Overcast
4:35 PM 44.2 °F 35.2 °F 31.5 °F 61% 29.53 in 10.0 mi West 24.2 mph 29.9 mph N/A   Overcast
4:55 PM 43.9 °F 35.9 °F 30.4 °F 59% 29.53 in 10.0 mi West 18.4 mph - N/A   Overcast
5:15 PM 43.3 °F 34.5 °F 28.6 °F 56% 29.54 in 10.0 mi West 21.9 mph 39.1 mph N/A   Overcast
5:35 PM 42.4 °F 33.3 °F 29.1 °F 59% 29.55 in 10.0 mi West 21.9 mph 34.5 mph N/A   Overcast
5:55 PM 37.8 °F 24.3 °F 31.5 °F 78% 29.57 in 10.0 mi WNW 36.8 mph 43.7 mph N/A   Light Drizzle
6:15 PM 35.4 °F 22.5 °F 32.0 °F 87% 29.58 in 7.0 mi West 28.8 mph 34.5 mph N/A   Light Drizzle
6:35 PM 34.9 °F 23.0 °F 32.0 °F 89% 29.60 in 7.0 mi West 23.0 mph 31.1 mph N/A Rain Light Rain
6:55 PM 35.6 °F 24.5 °F 32.0 °F 87% 29.61 in 10.0 mi West 20.7 mph 26.5 mph N/A Rain Light Rain
7:15 PM 34.7 °F 22.2 °F 31.8 °F 89% 29.60 in 10.0 mi West 25.3 mph 31.1 mph N/A   Overcast
7:35 PM 34.7 °F 23.4 °F 31.1 °F 87% 29.61 in 10.0 mi West 20.7 mph 28.8 mph N/A   Overcast
7:55 PM 35.6 °F 23.7 °F 30.2 °F 81% 29.60 in 10.0 mi West 24.2 mph 29.9 mph N/A   Overcast
8:15 PM 35.1 °F 22.0 °F 29.3 °F 80% 29.61 in 10.0 mi West 28.8 mph 34.5 mph N/A   Overcast
8:35 PM 35.2 °F 22.5 °F 29.1 °F 78% 29.61 in 10.0 mi West 27.6 mph 33.4 mph N/A   Overcast
8:55 PM 35.2 °F 22.5 °F 28.6 °F 77% 29.61 in 10.0 mi West 27.6 mph 35.7 mph N/A   Overcast
9:15 PM 35.4 °F 22.7 °F 28.4 °F 76% 29.63 in 10.0 mi West 27.6 mph 36.8 mph N/A   Overcast
9:35 PM 35.2 °F 22.3 °F 28.6 °F 77% 29.63 in 10.0 mi West 28.8 mph 35.7 mph N/A   Overcast
9:55 PM 35.1 °F 22.2 °F 28.8 °F 78% 29.64 in 10.0 mi West 27.6 mph 34.5 mph N/A   Overcast
10:15 PM 35.1 °F 22.7 °F 28.8 °F 78% 29.63 in 10.0 mi West 25.3 mph 38.0 mph N/A   Overcast
10:35 PM 35.1 °F 22.7 °F 28.9 °F 78% 29.64 in 10.0 mi West 25.3 mph 29.9 mph N/A   Overcast
10:55 PM 34.9 °F 23.0 °F 29.3 °F 80% 29.65 in 10.0 mi West 23.0 mph 29.9 mph N/A   Overcast
11:15 PM 34.9 °F 22.0 °F 29.8 °F 82% 29.65 in 10.0 mi West 27.6 mph 35.7 mph N/A   Overcast
11:35 PM 34.7 °F 22.2 °F 30.2 °F 84% 29.65 in 10.0 mi West 25.3 mph 34.5 mph N/A   Overcast
11:55 PM 34.7 °F 22.8 °F 30.6 °F 85% 29.66 in 10.0 mi West 23.0 mph 28.8 mph N/A   Overcast